FW4092 Weather Reports


Display with metric or nautical units.
time (UTC)temp
F
wind
direction
speed
MPH
gust
MPH
rain 1hr
in
rain 24hr
in
rain mn
in
humidity
%
barometer
mb
20260509144742 49 134 2.0 6.0 0.00 0.00 0.00 69 1018.7
20260509144237 48 138 3.0 8.0 0.00 0.00 0.00 69 1018.8
20260509143729 47 146 3.0 7.0 0.00 0.00 0.00 70 1018.8
20260509143717 47 124 3.0 8.0 0.00 0.00 0.00 71 1018.8
20260509143458 47 124 3.0 8.0 0.00 0.00 0.00 71 1018.8
20260509142717 47 134 3.0 8.0 0.00 0.00 0.00 72 1018.8
20260509142444 46 142 2.0 6.0 0.00 0.00 0.00 72 1018.8
20260509141935 46 137 2.0 6.0 0.00 0.00 0.00 73 1018.8
20260509141159 45 136 2.0 8.0 0.00 0.00 0.00 74 1018.7
20260509140653 44 150 2.0 8.0 0.00 0.00 0.00 75 1018.7
20260509140148 44 125 2.0 7.0 0.00 0.00 0.00 76 1018.7
20260509135641 43 128 2.0 7.0 0.00 0.00 0.00 77 1018.5
20260509135135 42 130 2.0 6.0 0.00 0.00 0.00 78 1018.5
20260509134629 42 130 2.0 5.0 0.00 0.00 0.00 78 1018.4
20260509134122 42 144 2.0 5.0 0.00 0.00 0.00 78 1018.5
20260509133617 41 128 2.0 7.0 0.00 0.00 0.00 79 1018.3
20260509133442 40 134 2.0 7.0 0.00 0.00 0.00 79 1018.4
20260509133438 40 144 3.0 7.0 0.00 0.00 0.00 80 1018.3
20260509133433 41 130 2.0 7.0 0.00 0.00 0.00 79 1018.3
20260509131617 40 144 3.0 8.0 0.00 0.00 0.00 80 1018.2
20260509131115 39 161 3.0 8.0 0.00 0.00 0.00 80 1018.1
20260509130615 39 136 2.0 8.0 0.00 0.00 0.00 80 1018.1
20260509130117 39 158 2.0 6.0 0.00 0.00 0.00 79 1018.0
20260509125613 39 143 2.0 6.0 0.00 0.00 0.00 79 1018.0
20260509125113 39 141 2.0 5.0 0.00 0.00 0.00 79 1017.9
20260509124611 39 171 2.0 7.0 0.00 0.00 0.00 79 1017.9
20260509124112 39 147 2.0 7.0 0.00 0.00 0.00 80 1017.9
20260509123611 39 148 3.0 7.0 0.00 0.00 0.00 81 1017.9
20260509123111 39 144 4.0 7.0 0.00 0.00 0.00 80 1017.9
20260509122611 39 141 4.0 7.0 0.00 0.00 0.00 79 1018.0
20260509122111 39 132 4.0 8.0 0.00 0.00 0.00 79 1018.0
20260509121611 40 136 3.0 8.0 0.00 0.00 0.00 79 1018.1
20260509121112 40 135 1.0 5.0 0.00 0.00 0.00 80 1018.3
20260509120610 40 126 1.0 4.0 0.00 0.00 0.00 81 1018.3
20260509120112 40 128 2.0 4.0 0.00 0.00 0.00 82 1018.3
20260509115611 40 131 1.0 3.0 0.00 0.00 0.00 82 1018.3
20260509115111 40 149 0.0 2.0 0.00 0.00 0.00 83 1018.3
20260509114612 39 150 0.0 1.0 0.00 0.00 0.00 83 1018.3
20260509114111 39 150 0.0 0.0 0.00 0.00 0.00 82 1018.2
20260509113610 40 150 0.0 1.0 0.00 0.00 0.00 81 1018.3
20260509113350 40 150 0.0 1.0 0.00 0.00 0.00 80 1018.3
20260509112611 41 150 0.0 0.0 0.00 0.00 0.00 80 1018.3
20260509112120 41 150 0.0 0.0 0.00 0.00 0.00 78 1018.2
20260509111616 42 150 0.0 0.0 0.00 0.00 0.00 78 1018.3
20260509111113 42 150 0.0 0.0 0.00 0.00 0.00 78 1018.3
20260509110609 42 150 0.0 2.0 0.00 0.00 0.00 78 1018.3
20260509110331 42 150 0.0 2.0 0.00 0.00 0.00 78 1018.2
20260509105835 42 153 0.0 2.0 0.00 0.00 0.00 79 1018.2
20260509105100 42 163 0.0 1.0 0.00 0.00 0.00 79 1018.2
20260509104558 42 150 0.0 3.0 0.00 0.00 0.00 79 1018.2
20260509104059 42 150 1.0 3.0 0.00 0.00 0.00 79 1018.4
20260509103556 42 151 1.0 2.0 0.00 0.00 0.00 78 1018.3
20260509103050 43 151 1.0 2.0 0.00 0.00 0.00 77 1018.4
20260509102621 44 152 0.0 1.0 0.00 0.00 0.00 76 1018.5
20260509102602 43 151 1.0 2.0 0.00 0.00 0.00 76 1018.4
20260509101532 44 152 0.0 0.0 0.00 0.00 0.00 75 1018.5
20260509101027 44 152 0.0 1.0 0.00 0.00 0.00 76 1018.5
20260509100521 44 152 0.0 1.0 0.00 0.00 0.00 76 1018.7
20260509100014 44 152 0.0 0.0 0.00 0.00 0.00 76 1018.7
20260509095508 44 152 0.0 1.0 0.00 0.00 0.00 76 1018.7
20260509095224 44 152 0.0 1.0 0.00 0.00 0.00 76 1018.5
20260509095007 44 152 0.0 1.0 0.00 0.00 0.00 76 1018.5
20260509094459 44 152 0.0 1.0 0.00 0.00 0.00 76 1018.5
20260509093950 44 152 0.0 1.0 0.00 0.00 0.00 75 1018.7
20260509093445 45 150 1.0 2.0 0.00 0.00 0.00 75 1018.8
20260509092940 45 150 1.0 3.0 0.00 0.00 0.00 75 1018.8
20260509092432 45 150 1.0 4.0 0.00 0.00 0.00 74 1018.7
20260509091927 46 155 1.0 4.0 0.00 0.00 0.00 73 1018.7
20260509091716 46 181 1.0 3.0 0.00 0.00 0.00 72 1018.8
20260509090914 47 232 1.0 3.0 0.00 0.00 0.00 72 1018.9
20260509090412 47 264 1.0 3.0 0.00 0.00 0.00 72 1018.9
20260509085902 47 298 0.0 3.0 0.00 0.00 0.00 72 1018.9
20260509085357 47 355 0.0 2.0 0.00 0.00 0.00 72 1019.0
20260509085119 47 355 0.0 2.0 0.00 0.00 0.00 72 1018.9
20260509084859 47 355 0.0 2.0 0.00 0.00 0.00 71 1018.9
20260509084123 47 22 0.0 1.0 0.00 0.00 0.00 71 1018.9
20260509083331 47 22 0.0 1.0 0.00 0.00 0.00 71 1019.0
20260509082826 47 23 0.0 0.0 0.00 0.00 0.00 71 1019.1
20260509082320 47 23 0.0 0.0 0.00 0.00 0.00 70 1019.0
20260509081814 47 23 0.0 0.0 0.00 0.00 0.00 70 1019.1
20260509081309 48 23 0.0 0.0 0.00 0.00 0.00 68 1019.0
20260509080810 48 23 0.0 0.0 0.00 0.00 0.00 67 1019.1
20260509080752 49 23 0.0 0.0 0.00 0.00 0.00 68 1019.0
20260509075750 49 23 0.0 0.0 0.00 0.00 0.00 68 1018.9
20260509075250 49 23 0.0 0.0 0.00 0.00 0.00 67 1018.9
20260509075033 49 23 0.0 0.0 0.00 0.00 0.00 66 1018.9
20260509074250 49 23 0.0 0.0 0.00 0.00 0.00 66 1018.9
20260509074030 50 23 0.0 0.0 0.00 0.00 0.00 64 1018.9
20260509073254 50 23 0.0 0.0 0.00 0.00 0.00 64 1018.9
20260509072747 51 23 0.0 0.0 0.00 0.00 0.00 64 1018.9
20260509072246 51 23 0.0 0.0 0.00 0.00 0.00 63 1018.9
20260509071744 51 23 0.0 0.0 0.00 0.00 0.00 62 1018.7
20260509071245 52 23 0.0 0.0 0.00 0.00 0.00 61 1018.7
20260509070744 52 23 0.0 1.0 0.00 0.00 0.00 60 1018.5
20260509070244 53 23 0.0 1.0 0.00 0.00 0.00 59 1018.5
20260509065744 53 23 0.0 3.0 0.00 0.00 0.00 58 1018.5
20260509065244 54 24 0.0 4.0 0.00 0.00 0.00 58 1018.4
20260509064745 55 34 1.0 4.0 0.00 0.00 0.00 57 1018.4
20260509064245 55 19 1.0 6.0 0.00 0.00 0.00 57 1018.4
20260509063740 55 11 1.0 6.0 0.00 0.00 0.00 58 1018.3
20260509063258 55 345 1.0 4.0 0.00 0.00 0.00 59 1018.4
20260509063254 55 337 0.0 4.0 0.00 0.00 0.00 59 1018.3
20260509062240 55 22 1.0 4.0 0.00 0.00 0.00 59 1018.4
20260509061740 55 311 1.0 5.0 0.00 0.00 0.00 60 1018.4
20260509061243 55 355 0.0 5.0 0.00 0.00 0.00 60 1018.4
20260509060740 55 355 0.0 4.0 0.00 0.00 0.00 61 1018.4
20260509060535 56 355 1.0 4.0 0.00 0.00 0.00 59 1018.3
20260509055740 56 350 1.0 5.0 0.00 0.00 0.00 58 1018.1
20260509055235 56 351 2.0 5.0 0.00 0.00 0.00 58 1018.2
20260509054734 57 333 3.0 8.0 0.00 0.00 0.00 57 1018.3
20260509054235 57 327 4.0 11.0 0.00 0.00 0.00 57 1018.2
20260509053733 57 340 5.0 11.0 0.00 0.00 0.00 57 1018.1
20260509053234 57 296 5.0 10.0 0.00 0.00 0.00 57 1017.9
20260509052734 56 298 5.0 11.0 0.00 0.00 0.00 57 1017.9
20260509052243 56 313 3.0 11.0 0.00 0.00 0.00 57 1018.0
20260509051733 57 319 3.0 9.0 0.00 0.00 0.00 57 1018.0
20260509051233 57 290 3.0 9.0 0.00 0.00 0.00 57 1017.9
20260509050734 57 295 2.0 8.0 0.00 0.00 0.00 56 1018.0
20260509050233 57 318 1.0 8.0 0.00 0.00 0.00 56 1018.0
20260509045735 57 309 1.0 5.0 0.00 0.00 0.00 55 1018.0
20260509045232 58 343 1.0 6.0 0.00 0.00 0.00 55 1017.9
20260509044734 58 350 1.0 6.0 0.00 0.00 0.00 55 1018.0
20260509044224 58 355 2.0 7.0 0.00 0.00 0.00 54 1018.0
20260509043717 58 315 2.0 7.0 0.00 0.00 0.00 55 1018.0
20260509043211 57 325 3.0 5.0 0.00 0.00 0.00 54 1017.9
20260509042932 57 335 2.0 5.0 0.00 0.00 0.00 54 1017.8
20260509042202 58 334 2.0 6.0 0.00 0.00 0.00 53 1017.8
20260509041653 58 300 2.0 6.0 0.00 0.00 0.00 52 1017.6
20260509041147 58 319 2.0 6.0 0.00 0.00 0.00 52 1017.6
20260509040642 59 332 2.0 6.0 0.00 0.00 0.00 51 1017.6
20260509040137 59 333 3.0 7.0 0.00 0.00 0.00 51 1017.6
20260509035919 60 331 4.0 9.0 0.00 0.00 0.00 50 1017.5
20260509035914 59 332 3.0 8.0 0.00 0.00 0.00 50 1017.5
20260509034620 60 305 4.0 9.0 0.00 0.00 0.00 50 1017.3
20260509034111 60 338 4.0 9.0 0.00 0.00 0.00 49 1017.2
20260509033833 60 300 4.0 10.0 0.00 0.00 0.00 49 1017.1
20260509033131 60 327 5.0 12.0 0.00 0.00 0.00 49 1017.1
20260509032853 61 294 6.0 13.0 0.00 0.00 0.00 48 1017.1
20260509031546 62 308 6.0 16.0 0.00 0.00 0.00 47 1017.1
20260509031046 62 263 7.0 16.0 0.00 0.00 0.00 47 1017.1
20260509030834 62 300 8.0 18.0 0.00 0.00 0.00 46 1017.0
20260509030050 63 273 6.0 18.0 0.00 0.00 0.00 46 1016.9
20260509025546 63 302 6.0 13.0 0.00 0.00 0.00 45 1016.9
20260509025324 63 345 7.0 15.0 0.00 0.00 0.00 44 1016.8
20260509024545 64 331 7.0 15.0 0.00 0.00 0.00 44 1016.7
20260509024045 64 315 8.0 15.0 0.00 0.00 0.00 43 1016.8
20260509023838 65 304 8.0 15.0 0.00 0.00 0.00 42 1016.7
20260509023330 65 290 7.0 14.0 0.00 0.00 0.00 41 1016.7
20260509022545 66 275 7.0 14.0 0.00 0.00 0.00 40 1016.7
20260509022045 66 288 7.0 16.0 0.00 0.00 0.00 38 1016.7
20260509021545 67 333 7.0 16.0 0.00 0.00 0.00 38 1016.6
20260509021058 67 284 7.0 15.0 0.00 0.00 0.00 37 1016.6
20260509020552 67 317 7.0 18.0 0.00 0.00 0.00 37 1016.5
20260509020329 67 324 9.0 18.0 0.00 0.00 0.00 36 1016.1
20260509015600 68 302 8.0 16.0 0.00 0.00 0.00 36 1016.0
20260509015049 68 313 8.0 18.0 0.00 0.00 0.00 36 1016.0
20260509014544 68 5 9.0 18.0 0.00 0.00 0.00 35 1016.0
20260509014039 69 329 9.0 17.0 0.00 0.00 0.00 35 1015.8
20260509013539 69 329 9.0 22.0 0.00 0.00 0.00 34 1015.7
20260509013038 69 327 10.0 22.0 0.00 0.00 0.00 35 1015.6
20260509012538 70 330 10.0 17.0 0.00 0.00 0.00 34 1015.6
20260509012039 70 295 9.0 17.0 0.00 0.00 0.00 33 1015.8
20260509011536 71 271 6.0 17.0 0.00 0.00 0.00 31 1015.8
20260509011033 71 285 5.0 12.0 0.00 0.00 0.00 31 1015.9
20260509010555 71 348 5.0 11.0 0.00 0.00 0.00 31 1016.1
20260509010550 71 295 5.0 11.0 0.00 0.00 0.00 31 1016.0
20260509005533 71 232 6.0 13.0 0.00 0.00 0.00 30 1016.0
20260509005035 71 265 6.0 13.0 0.00 0.00 0.00 30 1015.9
20260509004533 72 28 5.0 12.0 0.00 0.00 0.00 29 1016.0
20260509004029 72 319 6.0 13.0 0.00 0.00 0.00 29 1015.7
20260509003530 71 235 8.0 16.0 0.00 0.00 0.00 29 1015.6
20260509003029 71 271 10.0 18.0 0.00 0.00 0.00 29 1015.5
20260509002529 71 283 11.0 18.0 0.00 0.00 0.00 28 1015.4
20260509002033 72 265 11.0 20.0 0.00 0.00 0.00 28 1015.4
20260509001529 72 269 11.0 20.0 0.00 0.00 0.00 27 1015.3
20260509001029 73 252 10.0 19.0 0.00 0.00 0.00 27 1015.2
20260509000529 73 288 11.0 20.0 0.00 0.00 0.00 27 1015.2
20260509000029 72 293 10.0 20.0 0.00 0.00 0.00 27 1015.3
20260508235530 73 268 9.0 18.0 0.00 0.00 0.00 27 1015.3
20260508235030 72 265 9.0 18.0 0.00 0.00 0.00 28 1015.4
20260508234823 72 315 9.0 18.0 0.00 0.00 0.00 28 1015.6
20260508234320 73 290 8.0 17.0 0.00 0.00 0.00 27 1015.8
20260508233528 73 313 6.0 14.0 0.00 0.00 0.00 27 1015.9
20260508233314 73 280 6.0 14.0 0.00 0.00 0.00 26 1015.9
20260508232538 73 291 7.0 16.0 0.00 0.00 0.00 27 1016.0
20260508232032 73 326 7.0 16.0 0.00 0.00 0.00 27 1016.0
20260508231528 73 331 8.0 16.0 0.00 0.00 0.00 27 1016.0
20260508231255 73 267 9.0 16.0 0.00 0.00 0.00 27 1015.8
20260508230526 73 338 8.0 15.0 0.00 0.00 0.00 26 1015.9
20260508230028 73 281 9.0 18.0 0.00 0.00 0.00 27 1015.7
20260508225525 73 298 10.0 18.0 0.00 0.00 0.00 27 1015.6
20260508225025 73 305 10.0 17.0 0.00 0.00 0.00 27 1015.7
20260508224532 72 302 10.0 22.0 0.00 0.00 0.00 27 1015.6
20260508223510 72 300 10.0 20.0 0.00 0.00 0.00 27 1015.9
20260508223001 72 233 10.0 18.0 0.00 0.00 0.00 28 1015.8
20260508222454 72 205 10.0 18.0 0.00 0.00 0.00 27 1015.9
20260508221948 73 322 9.0 18.0 0.00 0.00 0.00 27 1015.8
20260508221442 73 304 9.0 18.0 0.00 0.00 0.00 28 1015.8
20260508220936 73 331 9.0 16.0 0.00 0.00 0.00 27 1015.9
20260508220429 73 292 8.0 18.0 0.00 0.00 0.00 27 1015.8
20260508215931 73 338 9.0 18.0 0.00 0.00 0.00 28 1015.8
20260508215925 74 323 8.0 18.0 0.00 0.00 0.00 27 1015.8
20260508214916 73 292 9.0 18.0 0.00 0.00 0.00 27 1015.6
20260508214912 73 274 10.0 18.0 0.00 0.00 0.00 27 1015.8
20260508213929 73 298 9.0 18.0 0.00 0.00 0.00 28 1015.7
20260508213914 73 292 9.0 18.0 0.00 0.00 0.00 28 1015.6
20260508212848 72 312 11.0 19.0 0.00 0.00 0.00 27 1015.6
20260508212343 72 351 11.0 22.0 0.00 0.00 0.00 26 1015.7
20260508211836 72 327 9.0 22.0 0.00 0.00 0.00 26 1015.7
20260508211332 73 290 8.0 19.0 0.00 0.00 0.00 25 1015.7
20260508210825 73 295 9.0 18.0 0.00 0.00 0.00 26 1015.6
20260508210321 72 254 9.0 19.0 0.00 0.00 0.00 26 1015.6
20260508205813 72 333 9.0 19.0 0.00 0.00 0.00 26 1015.6
20260508205309 72 300 9.0 22.0 0.00 0.00 0.00 26 1015.5
20260508204800 72 301 8.0 22.0 0.00 0.00 0.00 24 1015.7
20260508204257 72 323 8.0 18.0 0.00 0.00 0.00 24 1015.5
20260508204036 72 269 8.0 18.0 0.00 0.00 0.00 23 1015.6
20260508203242 72 299 7.0 15.0 0.00 0.00 0.00 24 1015.5
20260508202739 71 302 6.0 14.0 0.00 0.00 0.00 24 1015.6
20260508202258 72 331 7.0 16.0 0.00 0.00 0.00 24 1015.7
20260508202244 72 286 7.0 14.0 0.00 0.00 0.00 24 1015.6
20260508201218 71 0 8.0 16.0 0.00 0.00 0.00 24 1015.6
20260508200951 71 279 8.0 16.0 0.00 0.00 0.00 22 1015.7
20260508200451 72 281 7.0 15.0 0.00 0.00 0.00 22 1015.7
20260508195701 72 258 8.0 15.0 0.00 0.00 0.00 21 1015.8
20260508195154 72 267 6.0 18.0 0.00 0.00 0.00 22 1015.7
20260508194648 72 292 6.0 16.0 0.00 0.00 0.00 22 1015.6
20260508194142 71 261 6.0 13.0 0.00 0.00 0.00 20 1015.7
20260508193637 71 254 6.0 13.0 0.00 0.00 0.00 21 1015.6
20260508193129 70 298 8.0 18.0 0.00 0.00 0.00 22 1015.6
20260508192632 70 262 8.0 18.0 0.00 0.00 0.00 21 1015.5
20260508192130 70 256 6.0 15.0 0.00 0.00 0.00 23 1015.6
20260508191630 70 296 5.0 14.0 0.00 0.00 0.00 21 1015.7
20260508191131 69 255 5.0 12.0 0.00 0.00 0.00 22 1015.6
20260508190630 69 205 7.0 13.0 0.00 0.00 0.00 21 1015.6
20260508190424 69 255 6.0 13.0 0.00 0.00 0.00 21 1015.6
20260508185630 69 265 5.0 14.0 0.00 0.00 0.00 21 1015.7
20260508185133 69 259 6.0 14.0 0.00 0.00 0.00 23 1015.7
20260508184630 69 303 5.0 11.0 0.00 0.00 0.00 22 1015.6
20260508184130 68 308 5.0 10.0 0.00 0.00 0.00 24 1015.6
20260508183628 67 323 6.0 12.0 0.00 0.00 0.00 26 1015.8
20260508183415 66 295 6.0 13.0 0.00 0.00 0.00 26 1015.8
20260508182919 65 319 6.0 13.0 0.00 0.00 0.00 28 1015.8
20260508182351 64 298 5.0 12.0 0.00 0.00 0.00 29 1015.8
20260508181852 64 252 4.0 11.0 0.00 0.00 0.00 30 1015.9
20260508181128 64 294 4.0 11.0 0.00 0.00 0.00 31 1015.9
20260508180912 64 267 5.0 11.0 0.00 0.00 0.00 31 1015.8
20260508180356 64 324 5.0 10.0 0.00 0.00 0.00 31 1015.6
20260508175635 64 254 4.0 9.0 0.00 0.00 0.00 32 1015.6
20260508175411 64 283 5.0 9.0 0.00 0.00 0.00 32 1015.4
20260508174901 64 261 6.0 10.0 0.00 0.00 0.00 31 1015.4
20260508174127 64 304 5.0 12.0 0.00 0.00 0.00 31 1015.3
20260508173626 64 229 5.0 12.0 0.00 0.00 0.00 31 1015.4
20260508173412 65 285 4.0 8.0 0.00 0.00 0.00 31 1015.4
20260508172626 65 215 4.0 11.0 0.00 0.00 0.00 31 1015.5
20260508172124 65 255 4.0 11.0 0.00 0.00 0.00 33 1015.6
20260508171623 65 289 3.0 9.0 0.00 0.00 0.00 34 1015.6
20260508171122 65 32 2.0 8.0 0.00 0.00 0.00 33 1015.6
20260508170632 64 219 3.0 10.0 0.00 0.00 0.00 35 1015.5
20260508170127 64 325 2.0 10.0 0.00 0.00 0.00 36 1015.5
20260508165621 64 294 1.0 4.0 0.00 0.00 0.00 38 1015.5
20260508165419 64 327 2.0 6.0 0.00 0.00 0.00 36 1015.5
20260508164621 63 300 3.0 9.0 0.00 0.00 0.00 37 1015.5
20260508164120 63 333 2.0 9.0 0.00 0.00 0.00 39 1015.6
20260508163620 62 334 2.0 7.0 0.00 0.00 0.00 41 1015.6
20260508163120 62 302 2.0 7.0 0.00 0.00 0.00 41 1015.6
20260508162611 62 313 1.0 4.0 0.00 0.00 0.00 42 1015.7
20260508162356 62 220 1.0 4.0 0.00 0.00 0.00 42 1015.8
20260508161844 62 281 1.0 4.0 0.00 0.00 0.00 42 1015.8
20260508161054 62 350 1.0 4.0 0.00 0.00 0.00 42 1015.7
20260508160547 62 176 0.0 3.0 0.00 0.00 0.00 41 1015.6
20260508160328 61 105 1.0 3.0 0.00 0.00 0.00 42 1015.6
20260508155535 61 118 1.0 3.0 0.00 0.00 0.00 42 1015.6
20260508155030 60 108 1.0 4.0 0.00 0.00 0.00 43 1015.5
20260508154525 59 113 2.0 4.0 0.00 0.00 0.00 44 1015.5
20260508154021 58 139 1.0 4.0 0.00 0.00 0.00 44 1015.5
20260508153752 57 155 2.0 5.0 0.00 0.00 0.00 46 1015.5
20260508153037 55 150 2.0 5.0 0.00 0.00 0.00 47 1015.4
20260508153020 56 150 2.0 5.0 0.00 0.00 0.00 47 1015.5
20260508151952 54 158 2.0 5.0 0.00 0.00 0.00 48 1015.3
20260508151447 53 135 2.0 5.0 0.00 0.00 0.00 49 1015.3
20260508151232 52 180 2.0 5.0 0.00 0.00 0.00 49 1015.3
20260508150434 51 142 1.0 6.0 0.00 0.00 0.00 51 1015.2
20260508145932 50 147 1.0 6.0 0.00 0.00 0.00 52 1015.2
20260508145711 49 121 1.0 5.0 0.00 0.00 0.00 52 1015.2